Location: Laupheim
(48.2265°N, 9.8829°E)
Time: 12:34:33
(UTC+01:00)

Amateur Radio Satellites - All Passes

Search period start: 20 November 2017 12:04
Search period end: 21 November 2017 12:04
Location: Laupheim, 48.2265°N, 9.8829°E

Satellite Date Start Highest point End Downlink Frequencies (MHz)
Time Altitude Azimuth
QB50P2 20 Nov 12:23:02 12:26:19 21° 267° (W) 12:29:35 145.880/145.840
M-CUBED/EXP-1 PRIME 20 Nov 12:25:20 12:27:20 14° 52° (NE) 12:29:25 437.505
BEESAT 2 20 Nov 12:28:29 12:32:33 87° 51° (NE) 12:36:34 435.950
BUGSAT 1 20 Nov 12:35:34 12:39:46 75° 256° (WSW) 12:43:58 437.445
AO-85 20 Nov 12:38:33 12:43:02 54° 47° (NE) 12:47:53 145.980
AO-7 20 Nov 12:40:12 12:46:25 24° 45° (NE) 12:52:38 .
LO-87 20 Nov 12:40:54 12:43:43 22° 294° (WNW) 12:46:30 145.935 - 145.965
BEESAT 3 20 Nov 12:58:48 13:01:19 16° 248° (WSW) 13:03:49 437.485
Oscar 19 20 Nov 12:59:05 13:04:13 85° 258° (WSW) 13:09:22 437.125/150
SPROUT 20 Nov 13:01:16 13:05:33 88° 96° (E) 13:09:47 437.525
ESTCUBE 1 20 Nov 13:04:56 13:08:46 27° 295° (WNW) 13:12:35 437.505/2401.250
FALCONSAT 3 20 Nov 13:06:37 13:07:45 11° 185° (S) 13:08:53 435.103
ITAMSAT 1 20 Nov 13:13:21 13:15:28 13° 52° (NE) 13:17:36 435.822/435.867
Gurwin Techsat 1B 20 Nov 13:14:13 13:19:33 87° 254° (WSW) 13:24:55 435.225
50 SAT 20 Nov 13:17:18 13:19:39 18° 94° (E) 13:21:57 437.505
UKube-1 20 Nov 13:29:18 13:32:15 18° 91° (E) 13:35:10 .
O/OREOS (USA 219) 20 Nov 13:29:30 13:33:38 34° 106° (ESE) 13:37:48 437.305
VELOX 1 20 Nov 13:30:18 13:34:47 77° 287° (WNW) 13:39:13 145.980
M-CUBED/EXP-1 PRIME 20 Nov 13:57:37 14:01:10 67° 252° (WSW) 14:05:03 437.505
BEESAT 2 20 Nov 14:08:11 14:09:37 12° 251° (WSW) 14:11:03 435.950
AO-85 20 Nov 14:19:22 14:23:16 26° 244° (WSW) 14:27:22 145.980
DX 1 20 Nov 14:19:36 14:24:01 85° 105° (ESE) 14:28:24 434.975-435.025
MOZHAYETS 4 20 Nov 14:28:52 14:31:35 15° 89° (E) 14:34:17
AO-7 20 Nov 14:29:46 14:38:02 80° 68° (ENE) 14:46:23 .
SPROUT 20 Nov 14:39:02 14:40:47 12° 303° (WNW) 14:42:33 437.525
Oscar 19 20 Nov 14:42:13 14:44:19 12° 274° (W) 14:46:25 437.125/150
ITAMSAT 1 20 Nov 14:48:49 14:53:59 67° 71° (ENE) 14:59:12 435.822/435.867
50 SAT 20 Nov 14:48:58 14:51:47 28° 292° (WNW) 14:54:36 437.505
Gurwin Techsat 1B 20 Nov 14:57:44 15:00:17 13° 274° (W) 15:02:49 435.225
UKube-1 20 Nov 15:04:20 15:08:35 54° 289° (WNW) 15:12:47 .
O/OREOS (USA 219) 20 Nov 15:08:51 15:13:03 33° 306° (NW) 15:17:15 437.305
VELOX 1 20 Nov 15:09:03 15:10:26 11° 305° (NW) 15:11:50 145.980
BEESAT 20 Nov 15:32:31 15:37:07 46° 99° (E) 15:41:40 436.000
YUBILEINY 20 Nov 15:34:40 15:42:25 32° 63° (ENE) 15:50:04 435.215
NO-84 20 Nov 15:34:49 15:38:02 27° 133° (SE) 15:41:27 435.350 FM
ITUPSAT 1 20 Nov 15:41:23 15:46:04 54° 100° (E) 15:50:43 437.325
HO-68 20 Nov 15:50:13 15:53:00 13° 40° (NE) 15:55:46 435.675
DOVE 4 20 Nov 15:54:37 15:59:28 47° 68° (ENE) 16:04:30 437.250
DX 1 20 Nov 15:57:24 15:59:34 14° 303° (WNW) 16:01:44 434.975-435.025
MOZHAYETS 4 20 Nov 16:04:39 16:09:12 67° 287° (WNW) 16:13:44
CUBESAT XI-V 20 Nov 16:13:10 16:17:35 40° 97° (E) 16:21:59 437.345
CUTE-I 20 Nov 16:14:36 16:18:24 20° 57° (ENE) 16:22:13 437.470
AO-7 20 Nov 16:25:03 16:31:41 26° 268° (W) 16:38:23 .
KKS-1 20 Nov 16:29:08 16:31:30 14° 89° (E) 16:33:52 437.445
ITAMSAT 1 20 Nov 16:30:14 16:33:56 19° 270° (W) 16:37:39 435.822/435.867
KAITUO 1B 20 Nov 16:33:13 16:35:25 15° 62° (ENE) 16:37:37 145.475/437.950
XW-2D 20 Nov 16:44:13 16:47:23 27° 67° (ENE) 16:50:35 145.860 - 145.880
STARS 20 Nov 16:57:28 16:58:37 11° 87° (E) 16:59:46 437.465
XW-2B 20 Nov 16:58:40 17:02:07 36° 70° (ENE) 17:05:35 145.730 - 145.750
CUTE 1.7 + AOD 2 20 Nov 17:06:29 17:08:47 14° 60° (ENE) 17:11:05 437.475
BEESAT 20 Nov 17:10:46 17:14:39 25° 298° (WNW) 17:18:31 436.000
NO-84 20 Nov 17:11:16 17:15:07 64° 333° (NNW) 17:19:14 435.350 FM
NUDT-PHONESAT 20 Nov 17:18:13 17:21:40 42° 71° (ENE) 17:25:09 437.300
ITUPSAT 1 20 Nov 17:19:55 17:23:33 22° 299° (WNW) 17:27:11 437.325
XW-2C 20 Nov 17:23:53 17:27:36 73° 75° (ENE) 17:31:21 145.795 - 145.815
LilacSat-2 20 Nov 17:24:31 17:28:16 79° 73° (ENE) 17:32:03 437.200
YUBILEINY 20 Nov 17:31:12 17:40:00 70° 266° (W) 17:48:45 435.215
HO-68 20 Nov 17:32:15 17:39:01 46° 62° (ENE) 17:45:49 435.675
DOVE 4 20 Nov 17:33:05 17:37:20 27° 268° (W) 17:41:46 437.250
XW-2F 20 Nov 17:35:34 17:39:17 88° 256° (WSW) 17:43:03 145.980 - 146.000
SEEDS 20 Nov 17:38:18 17:41:11 19° 62° (ENE) 17:44:06 437.485
MOZHAYETS 4 20 Nov 17:44:55 17:45:29 10° 306° (NW) 17:46:03
AAUSAT CUBESAT 2 20 Nov 17:49:52 17:51:20 12° 58° (ENE) 17:52:47 437.432
CUBEBUG 2 20 Nov 17:50:19 17:54:02 25° 65° (ENE) 17:57:40 437.445
CUBESAT XI-V 20 Nov 17:50:50 17:54:48 28° 295° (WNW) 17:58:45 437.345
CUTE-I 20 Nov 17:52:31 17:57:53 75° 256° (WSW) 18:03:18 437.470
KKS-1 20 Nov 18:04:05 18:08:34 72° 288° (WNW) 18:13:00 437.445
KAITUO 1B 20 Nov 18:05:27 18:09:01 50° 261° (W) 18:12:38 145.475/437.950
RS-15 20 Nov 18:12:30 18:23:21 39° 107° (ESE) 18:34:07 29.354- 29.394
XW-2D 20 Nov 18:18:20 18:21:31 26° 265° (W) 18:24:43 145.860 - 145.880
STRAND 1 20 Nov 18:22:59 18:24:13 11° 85° (E) 18:25:26 437.568
STARS 20 Nov 18:31:10 18:35:37 88° 279° (W) 18:39:59 437.465
XW-2B 20 Nov 18:33:40 18:36:25 19° 268° (W) 18:39:11 145.730 - 145.750
CUTE 1.7 + AOD 2 20 Nov 18:39:53 18:44:04 71° 258° (WSW) 18:48:18 437.475
ZACube-1 20 Nov 18:41:59 18:45:30 25° 65° (ENE) 18:48:59 437.345
UWE-3 20 Nov 18:48:33 18:52:51 51° 72° (ENE) 18:57:04 435.000/436.395/437.385
NO-84 20 Nov 18:49:21 18:53:02 32° 354° (N) 18:56:52 435.350 FM
NUDT-PHONESAT 20 Nov 18:53:25 18:55:44 16° 269° (W) 18:58:03 437.300
XW-2A 20 Nov 18:55:49 18:59:02 52° 73° (ENE) 19:02:18 145.665 - 145.685
XW-2C 20 Nov 19:02:04 19:02:16 10° 273° (W) 19:02:28 145.795 - 145.815
SEEDS 20 Nov 19:12:27 19:16:30 51° 261° (W) 19:20:37 437.485
HO-68 20 Nov 19:20:02 19:26:48 43° 262° (W) 19:33:37 435.675
AAUSAT CUBESAT 2 20 Nov 19:21:59 19:26:07 89° 264° (W) 19:30:17 437.432
CUBEBUG 2 20 Nov 19:26:07 19:30:28 41° 262° (W) 19:34:43 437.445
YUBILEINY 20 Nov 19:30:18 19:35:05 16° 288° (WNW) 19:39:53 435.215
AO-73 20 Nov 19:32:42 19:36:59 69° 74° (ENE) 19:41:11 145.935
CUTE-I 20 Nov 19:37:09 19:38:51 11° 275° (W) 19:40:33 437.470
KKS-1 20 Nov 19:43:16 19:44:18 11° 306° (NW) 19:45:20 437.445
Max Valier Satellite 20 Nov 19:48:12 19:48:45 10° 59° (ENE) 19:49:19 145.860
Oscar 11 20 Nov 19:50:09 19:54:25 72° 75° (ENE) 19:58:44 .
STRAND 1 20 Nov 19:59:07 20:04:17 76° 104° (ESE) 20:09:22 437.568
DELFI C3 20 Nov 20:02:22 20:05:28 22° 65° (ENE) 20:08:35 145.870
STARS 20 Nov 20:09:21 20:11:15 13° 304° (NW) 20:13:08 437.465
FO-29 20 Nov 20:14:45 20:22:03 39° 93° (E) 20:29:00 435.910
ZACube-1 20 Nov 20:17:37 20:21:38 37° 263° (W) 20:25:36 437.345
RS-15 20 Nov 20:22:35 20:34:59 78° 312° (NW) 20:47:14 29.354- 29.394
UWE-3 20 Nov 20:26:26 20:29:34 19° 269° (W) 20:32:40 435.000/436.395/437.385
NO-84 20 Nov 20:27:11 20:31:08 39° 15° (NNE) 20:35:10 435.350 FM
XW-2A 20 Nov 20:31:09 20:32:04 11° 271° (W) 20:32:58 145.665 - 145.685
AO-73 20 Nov 21:11:35 21:13:40 13° 271° (W) 21:15:44 145.935
Max Valier Satellite 20 Nov 21:18:20 21:21:59 81° 257° (WSW) 21:25:40 145.860
EO-88 20 Nov 21:18:42 21:22:18 72° 75° (ENE) 21:25:56 145.990 - 145.960
nSIGHT-1 20 Nov 21:19:38 21:22:16 23° 142° (SE) 21:24:54 .
Oscar 11 20 Nov 21:29:04 21:31:04 13° 272° (W) 21:33:04 .
DELFI C3 20 Nov 21:36:19 21:40:00 37° 263° (W) 21:43:45 145.870
STRAND 1 20 Nov 21:39:25 21:42:53 19° 303° (WNW) 21:46:19 437.568
SO-50 20 Nov 21:40:23 21:43:55 23° 115° (ESE) 21:47:29 436.795
LO-87 20 Nov 21:46:40 21:49:29 22° 66° (ENE) 21:52:19 145.935 - 145.965
UNISAT 6 20 Nov 21:51:18 21:55:22 40° 98° (E) 21:59:23 437.425
TIGRISAT 20 Nov 21:55:53 21:59:58 41° 98° (E) 22:03:59 435.000
O/OREOS (USA 219) 20 Nov 21:56:51 22:00:11 19° 47° (NE) 22:03:29 437.305
FO-29 20 Nov 21:59:37 22:07:16 56° 293° (WNW) 22:14:38 435.910
ISS 20 Nov 22:00:24 22:03:30 40° 147° (SSE) 22:06:36 437.550
NO-84 20 Nov 22:04:32 22:08:48 75° 214° (SSW) 22:13:03 435.350 FM
SPROUT 20 Nov 22:24:17 22:26:28 14° 58° (ENE) 22:28:39 437.525
ESTCUBE 1 20 Nov 22:30:32 22:34:53 53° 71° (ENE) 22:39:16 437.505/2401.250
RS-15 20 Nov 22:38:17 22:49:40 40° 341° (NNW) 23:00:47 29.354- 29.394
nSIGHT-1 20 Nov 22:55:02 22:58:15 77° 339° (NNW) 23:01:28 .
VELOX 1 20 Nov 22:55:48 22:58:59 20° 61° (ENE) 23:02:10 145.980
PRISM 20 Nov 23:05:22 23:09:34 86° 107° (ESE) 23:13:44 437.425
LO-87 20 Nov 23:19:30 23:22:44 31° 263° (W) 23:26:00 145.935 - 145.965
SO-50 20 Nov 23:19:40 23:24:03 54° 314° (NW) 23:28:31 436.795
DUCHIFAT 1 20 Nov 23:19:54 23:21:36 12° 88° (E) 23:23:17 145.980
EO-79 20 Nov 23:25:18 23:28:13 18° 91° (E) 23:31:06 145.935-145.965
UNISAT 6 20 Nov 23:28:28 23:31:52 23° 296° (WNW) 23:35:14 437.425
NANOSAT C BR1 20 Nov 23:29:06 23:31:56 17° 91° (E) 23:34:46 145.865
TIGRISAT 20 Nov 23:33:04 23:36:26 23° 297° (WNW) 23:39:45 435.000
PCSat 20 Nov 23:33:54 23:37:08 16° 105° (ESE) 23:40:22 145.827
O/OREOS (USA 219) 20 Nov 23:35:32 23:40:05 68° 247° (WSW) 23:44:34 437.305
ISS 20 Nov 23:36:42 23:39:56 56° 347° (NNW) 23:43:10 437.550
POLYITAN 1 20 Nov 23:39:58 23:43:27 25° 94° (E) 23:46:55 437.675
NO-84 20 Nov 23:43:01 23:45:35 16° 233° (SW) 23:48:08 435.350 FM
DX 1 20 Nov 23:44:18 23:46:55 16° 59° (ENE) 23:49:33 434.975-435.025
FO-29 20 Nov 23:46:17 23:50:39 16° 315° (NW) 23:54:59 435.910
50 SAT 20 Nov 23:48:50 23:50:08 12° 62° (ENE) 23:51:27 437.505
AIST 2D 20 Nov 23:50:16 23:53:48 81° 284° (WNW) 23:57:20 435.315
SPROUT 20 Nov 23:57:29 00:01:46 79° 257° (WSW) 00:06:05 437.525
QB50P2 21 Nov 00:02:50 00:06:55 47° 99° (E) 00:10:58 145.880/145.840
ESTCUBE 1 21 Nov 00:08:50 00:12:00 19° 269° (W) 00:15:12 437.505/2401.250
BUGSAT 1 21 Nov 00:15:35 00:17:01 12° 88° (E) 00:18:27 437.445
UKube-1 21 Nov 00:26:48 00:30:19 25° 63° (ENE) 00:33:51 .
VELOX 1 21 Nov 00:30:40 00:35:02 56° 259° (W) 00:39:27 145.980
nSIGHT-1 21 Nov 00:31:39 00:34:44 42° 360° (N) 00:37:50 .
PRISM 21 Nov 00:42:26 00:44:12 12° 303° (WNW) 00:45:58 437.425
DUCHIFAT 1 21 Nov 00:53:36 00:57:47 73° 286° (WNW) 01:01:55 145.980
RS-15 21 Nov 00:54:53 01:06:05 39° 15° (NNE) 01:16:47 29.354- 29.394
EO-79 21 Nov 01:00:11 01:04:15 49° 289° (WNW) 01:08:17 145.935-145.965
SO-50 21 Nov 01:02:44 01:05:31 16° 336° (NNW) 01:08:19 436.795
NANOSAT C BR1 21 Nov 01:03:53 01:07:56 50° 289° (WNW) 01:11:58 145.865
Oscar 19 21 Nov 01:07:19 01:11:35 25° 93° (E) 01:15:50 437.125/150
BEESAT 21 Nov 01:07:45 01:09:53 13° 55° (NE) 01:12:02 436.000
ISS 21 Nov 01:13:33 01:16:44 46° 6° (N) 01:19:54 437.550
PCSat 21 Nov 01:14:21 01:19:47 88° 301° (WNW) 01:25:16 145.827
POLYITAN 1 21 Nov 01:15:29 01:19:19 35° 292° (WNW) 01:23:07 437.675
ITUPSAT 1 21 Nov 01:16:20 01:19:01 15° 56° (ENE) 01:21:43 437.325
DX 1 21 Nov 01:18:13 01:22:34 71° 256° (WSW) 01:26:59 434.975-435.025
50 SAT 21 Nov 01:18:40 01:21:50 51° 260° (W) 01:25:02 437.505
Gurwin Techsat 1B 21 Nov 01:27:05 01:31:39 28° 94° (E) 01:36:10 435.225
MOZHAYETS 4 21 Nov 01:33:50 01:37:26 23° 63° (ENE) 01:41:03
QB50P2 21 Nov 01:39:19 01:42:24 20° 297° (WNW) 01:45:29 145.880/145.840
BUGSAT 1 21 Nov 01:48:50 01:52:53 72° 287° (WNW) 01:56:53 437.445
UKube-1 21 Nov 02:02:05 02:06:08 40° 261° (W) 02:10:15 .
nSIGHT-1 21 Nov 02:08:01 02:11:14 74° 19° (NNE) 02:14:26 .
AO-7 21 Nov 02:28:24 02:34:13 20° 88° (E) 02:40:00 .
BEESAT 21 Nov 02:42:07 02:46:53 80° 74° (ENE) 02:51:41 436.000
Oscar 19 21 Nov 02:46:10 02:51:08 49° 292° (WNW) 02:56:06 437.125/150
SO-50 21 Nov 02:47:25 02:47:55 10° 1° (N) 02:48:24 436.795
BEESAT 3 21 Nov 02:50:03 02:53:33 30° 118° (ESE) 02:57:05 437.485
ISS 21 Nov 02:50:05 02:53:22 73° 205° (SSW) 02:56:37 437.550
ITUPSAT 1 21 Nov 02:51:23 02:56:12 87° 257° (WSW) 03:01:01 437.325
ITAMSAT 1 21 Nov 02:59:01 03:02:27 17° 89° (E) 03:05:50 435.822/435.867
PCSat 21 Nov 02:59:41 03:03:57 23° 326° (NW) 03:08:13 145.827
M-CUBED/EXP-1 PRIME 21 Nov 03:05:38 03:10:02 50° 105° (ESE) 03:14:32 437.505
Gurwin Techsat 1B 21 Nov 03:06:42 03:11:48 47° 292° (WNW) 03:16:52 435.225
RS-15 21 Nov 03:08:50 03:20:56 73° 47° (NE) 03:32:18 29.354- 29.394
MOZHAYETS 4 21 Nov 03:09:57 03:14:21 46° 261° (W) 03:18:45
CUBESAT XI-V 21 Nov 03:19:39 03:24:09 58° 71° (ENE) 03:28:42 437.345
KKS-1 21 Nov 03:30:05 03:33:30 22° 62° (ENE) 03:36:56 437.445
nSIGHT-1 21 Nov 03:44:34 03:47:14 24° 218° (SW) 03:49:53 .
DOVE 4 21 Nov 03:52:31 03:53:49 11° 83° (E) 03:55:04 437.250
STARS 21 Nov 03:56:27 03:59:22 17° 59° (ENE) 04:02:17 437.465
BEESAT 2 21 Nov 03:59:43 04:03:33 46° 121° (ESE) 04:07:27 435.950
AO-7 21 Nov 04:19:47 04:28:12 84° 109° (ESE) 04:36:35 .
BEESAT 21 Nov 04:22:48 04:25:15 14° 272° (W) 04:27:43 436.000
SO-50 21 Nov 04:27:09 04:30:15 17° 26° (NNE) 04:33:22 436.795
BEESAT 3 21 Nov 04:27:17 04:31:01 36° 317° (NW) 04:34:46 437.485
ISS 21 Nov 04:27:31 04:29:22 14° 224° (SW) 04:31:13 437.550
ITUPSAT 1 21 Nov 04:33:06 04:34:44 12° 273° (W) 04:36:22 437.325
AO-85 21 Nov 04:36:49 04:40:30 41° 120° (ESE) 04:44:21 145.980
ITAMSAT 1 21 Nov 04:37:15 04:42:29 73° 287° (WNW) 04:47:38 435.822/435.867
M-CUBED/EXP-1 PRIME 21 Nov 04:40:32 04:44:08 24° 302° (WNW) 04:47:50 437.505
YUBILEINY 21 Nov 04:41:24 04:48:39 30° 81° (E) 04:55:56 435.215
PCSat 21 Nov 04:48:12 04:49:29 11° 351° (N) 04:50:46 145.827
CUBESAT XI-V 21 Nov 04:58:46 05:01:54 18° 270° (W) 05:05:05 437.345
KKS-1 21 Nov 05:05:24 05:09:45 49° 260° (W) 05:14:08 437.445
RS-15 21 Nov 05:22:02 05:32:35 41° 252° (WSW) 05:42:39 29.354- 29.394
DOVE 4 21 Nov 05:27:09 05:32:26 75° 102° (ESE) 05:37:26 437.250
STARS 21 Nov 05:30:50 05:35:14 64° 258° (WSW) 05:39:40 437.465
KAITUO 1B 21 Nov 05:34:06 05:35:44 12° 89° (E) 05:37:21 145.475/437.950
BEESAT 2 21 Nov 05:37:57 05:41:27 27° 321° (NW) 05:44:59 435.950
STRAND 1 21 Nov 05:40:47 05:44:54 25° 61° (ENE) 05:49:03 437.568
XW-2D 21 Nov 05:46:38 05:49:46 24° 94° (E) 05:52:53 145.860 - 145.880
XW-2B 21 Nov 06:01:12 06:04:40 32° 97° (E) 06:08:08 145.730 - 145.750
CUTE-I 21 Nov 06:06:02 06:10:53 33° 95° (E) 06:15:40 437.470
SO-50 21 Nov 06:06:59 06:11:35 63° 48° (NE) 06:16:15 436.795
BEESAT 3 21 Nov 06:08:32 06:09:40 11° 339° (NNW) 06:10:48 437.485
AO-7 21 Nov 06:13:19 06:20:10 30° 311° (NW) 06:27:01 .
AO-85 21 Nov 06:17:32 06:21:01 28° 322° (NW) 06:24:41 145.980
NUDT-PHONESAT 21 Nov 06:18:05 06:21:31 35° 97° (E) 06:24:57 437.300
ITAMSAT 1 21 Nov 06:18:36 06:21:03 13° 308° (NW) 06:23:30 435.822/435.867
CUTE 1.7 + AOD 2 21 Nov 06:21:58 06:24:37 16° 90° (E) 06:27:16 437.475
XW-2C 21 Nov 06:26:34 06:30:22 65° 102° (ESE) 06:34:09 145.795 - 145.815
LilacSat-2 21 Nov 06:28:00 06:31:50 73° 101° (E) 06:35:41 437.200
FO-29 21 Nov 06:31:05 06:36:43 27° 54° (NE) 06:42:46 435.910
PCSat 21 Nov 06:33:00 06:35:28 13° 18° (NNE) 06:37:57 145.827
YUBILEINY 21 Nov 06:36:00 06:44:43 70° 283° (WNW) 06:53:34 435.215
XW-2F 21 Nov 06:37:40 06:41:29 81° 104° (ESE) 06:45:17 145.980 - 146.000
HO-68 21 Nov 06:43:17 06:49:43 33° 95° (E) 06:56:03 435.675
SEEDS 21 Nov 06:52:51 06:56:03 20° 92° (E) 06:59:15 437.485
AAUSAT CUBESAT 2 21 Nov 07:02:16 07:03:42 11° 87° (E) 07:05:10 437.432
DOVE 4 21 Nov 07:05:51 07:09:28 19° 302° (WNW) 07:13:00 437.250
KAITUO 1B 21 Nov 07:06:21 07:10:04 60° 287° (WNW) 07:13:47 145.475/437.950
CUBEBUG 2 21 Nov 07:13:12 07:16:54 29° 95° (E) 07:20:33 437.445
STRAND 1 21 Nov 07:18:44 07:23:46 54° 260° (W) 07:28:51 437.568
XW-2D 21 Nov 07:20:36 07:23:58 31° 292° (WNW) 07:27:20 145.860 - 145.880
XW-2B 21 Nov 07:35:40 07:38:42 23° 294° (WNW) 07:41:44 145.730 - 145.750
Oscar 11 21 Nov 07:36:15 07:37:05 10° 86° (E) 07:37:55 .
CUTE-I 21 Nov 07:46:00 07:51:00 41° 294° (WNW) 07:55:58 437.470
XW-2A 21 Nov 07:46:12 07:49:16 32° 97° (E) 07:52:19 145.665 - 145.685
SO-50 21 Nov 07:48:10 07:51:40 21° 246° (WSW) 07:55:12 436.795
NUDT-PHONESAT 21 Nov 07:52:23 07:55:11 20° 295° (WNW) 07:57:58 437.300
CUTE 1.7 + AOD 2 21 Nov 07:56:37 08:00:50 58° 287° (WNW) 08:05:01 437.475
ZACube-1 21 Nov 08:01:52 08:05:32 30° 95° (E) 08:09:12 437.345
AO-85 21 Nov 08:02:02 08:02:52 10° 346° (NNW) 08:03:42 145.980
XW-2C 21 Nov 08:02:13 08:04:04 13° 299° (WNW) 08:05:55 145.795 - 145.815
LilacSat-2 21 Nov 08:03:59 08:05:35 12° 300° (WNW) 08:07:09 437.200
UWE-3 21 Nov 08:10:31 08:14:40 68° 102° (ESE) 08:18:47 435.000/436.395/437.385
XW-2F 21 Nov 08:13:57 08:15:00 11° 301° (WNW) 08:16:02 145.980 - 146.000
FO-29 21 Nov 08:14:12 08:20:56 79° 257° (WSW) 08:28:31 435.910
PCSat 21 Nov 08:15:37 08:20:34 34° 43° (NE) 08:25:30 145.827
PRISM 21 Nov 08:25:13 08:27:00 13° 57° (ENE) 08:28:46 437.425
SEEDS 21 Nov 08:27:53 08:31:56 44° 290° (WNW) 08:35:58 437.485
HO-68 21 Nov 08:30:45 08:37:47 58° 295° (WNW) 08:44:45 435.675
AAUSAT CUBESAT 2 21 Nov 08:35:30 08:39:42 78° 285° (WNW) 08:43:53 437.432
YUBILEINY 21 Nov 08:37:44 08:43:28 19° 308° (NW) 08:49:15 435.215
CUBEBUG 2 21 Nov 08:49:51 08:53:29 29° 294° (WNW) 08:57:04 437.445
AO-73 21 Nov 08:52:48 08:56:58 90° 214° (SSW) 09:01:07 145.935
UNISAT 6 21 Nov 08:52:59 08:57:28 57° 72° (ENE) 09:01:51 437.425
TIGRISAT 21 Nov 08:57:25 09:01:54 58° 72° (ENE) 09:06:17 435.000
Oscar 11 21 Nov 09:09:31 09:13:52 89° 293° (WNW) 09:18:12 .
DELFI C3 21 Nov 09:09:34 09:12:39 21° 93° (E) 09:15:42 145.870
XW-2A 21 Nov 09:19:24 09:21:45 18° 295° (WNW) 09:24:07 145.665 - 145.685
BEESAT 3 21 Nov 09:26:13 09:28:24 14° 27° (NNE) 09:30:34 437.485
ZACube-1 21 Nov 09:38:12 09:41:46 28° 293° (WNW) 09:45:21 437.345
UWE-3 21 Nov 09:48:21 09:50:37 14° 300° (WNW) 09:52:53 435.000/436.395/437.385
PRISM 21 Nov 09:57:30 10:01:38 84° 256° (WSW) 10:05:49 437.425
PCSat 21 Nov 09:58:56 10:04:11 51° 243° (WSW) 10:09:23 145.827
FO-29 21 Nov 10:03:10 10:07:19 17° 279° (W) 10:11:45 435.910
AAUSAT CUBESAT 2 21 Nov 10:13:45 10:14:24 10° 303° (WNW) 10:15:03 437.432
DUCHIFAT 1 21 Nov 10:14:42 10:17:17 16° 60° (ENE) 10:19:52 145.980
EO-88 21 Nov 10:16:58 10:20:35 56° 100° (E) 10:24:11 145.990 - 145.960
Max Valier Satellite 21 Nov 10:18:02 10:21:43 84° 105° (ESE) 10:25:23 145.860
HO-68 21 Nov 10:20:13 10:24:05 15° 316° (NW) 10:27:55 435.675
EO-79 21 Nov 10:20:52 10:24:11 23° 64° (ENE) 10:27:30 145.935-145.965
NANOSAT C BR1 21 Nov 10:24:20 10:27:35 22° 63° (ENE) 10:30:50 145.865
AIST 2D 21 Nov 10:27:23 10:30:48 60° 74° (ENE) 10:34:14 435.315
AO-73 21 Nov 10:31:14 10:32:33 11° 302° (WNW) 10:33:52 145.935
UNISAT 6 21 Nov 10:31:23 10:34:30 18° 269° (W) 10:37:35 437.425
POLYITAN 1 21 Nov 10:35:38 10:39:21 30° 67° (ENE) 10:43:04 437.675
TIGRISAT 21 Nov 10:35:51 10:38:55 18° 269° (W) 10:41:57 435.000
BEESAT 2 21 Nov 10:36:42 10:39:34 18° 32° (NNE) 10:42:24 435.950
LO-87 21 Nov 10:43:06 10:45:16 15° 91° (E) 10:47:26 145.935 - 145.965
DELFI C3 21 Nov 10:43:47 10:47:31 38° 290° (WNW) 10:51:14 145.870
Oscar 11 21 Nov 10:47:35 10:49:20 12° 303° (WNW) 10:51:03 .
QB50P2 21 Nov 10:58:24 11:02:33 56° 72° (ENE) 11:06:43 145.880/145.840
BEESAT 3 21 Nov 11:02:49 11:06:45 60° 48° (NE) 11:10:37 437.485
BUGSAT 1 21 Nov 11:08:10 11:10:38 15° 60° (ENE) 11:13:06 437.445
Gurwin Techsat 1B 21 Nov 11:15:56 11:17:50 12° 51° (NE) 11:19:44 435.225
AO-85 21 Nov 11:23:37 11:27:18 24° 35° (NE) 11:31:13 145.980
SPROUT 21 Nov 11:40:48 11:42:58 14° 89° (E) 11:45:07 437.525
AO-7 21 Nov 11:44:19 11:47:56 14° 32° (NNE) 11:51:32 .
DUCHIFAT 1 21 Nov 11:48:18 11:52:29 63° 259° (WSW) 11:56:41 145.980
EO-88 21 Nov 11:51:54 11:53:47 14° 298° (WNW) 11:55:42 145.990 - 145.960
Max Valier Satellite 21 Nov 11:54:44 11:54:56 10° 301° (WNW) 11:55:08 145.860
EO-79 21 Nov 11:55:41 11:59:43 42° 262° (W) 12:03:45 145.935-145.965
